Chatham, MA

6:28 PM EDT on March 26, 2017 (GMT -0400)
Chatham Municipal

Weather History for KCQX - March, 2012

Change the Weather History Date:

Saturday, March 24, 2012

  Actual Average Record
Temperature  
Mean Temperature 50 °F -  
Max Temperature 55 °F 44 °F 55 °F (2012)
Min Temperature 44 °F 32 °F 21 °F (2014)
Degree Days  
Heating Degree Days 16    
Moisture  
Dew Point 34 °F    
Average Humidity 61    
Maximum Humidity 73    
Minimum Humidity 34    
Precipitation  
Precipitation 0.00 in - - ()
Sea Level Pressure  
Sea Level Pressure 30.12 in    
Wind  
Wind Speed 6 mph (East)    
Max Wind Speed 12 mph    
Max Gust Speed -    
Visibility 10 miles    
Events      
Averages and records for this station are not official NWS values.
T = Trace of Precipitation, MM = Missing Value Source: NWS Daily Summary

Daily Weather History Graph

Daily Weather History Graph

Search for Another Location

Airport or City:

Trip Planner

Search our weather history database for the weather conditions in past years. The results will help you decide how hot, cold, wet, or windy it might be!

Date:

Astronomy

Mar. 24, 2012 Rise Set
Actual Time 6:35 AM EDT 6:57 PM EDT
Civil Twilight 6:07 AM EDT 7:24 PM EDT
Nautical Twilight 5:35 AM EDT 7:57 PM EDT
Astronomical Twilight 5:01 AM EDT 8:31 PM EDT
Moon 7:10 AM EDT (3/24) 9:16 PM EDT (3/24)
Length of Visible Light 13h 17m
Length of Day
12h 21m
Waxing Crescent, 4% of the Moon is Illuminated
Mar 24
Waxing Crescent
Mar 30
First Quarter
Apr 6
Full
Apr 13
Last Quarter
Apr 21
New

Hourly Weather History & Observations

Time (EDT) Temp. Windchill Dew Point Humidity Pressure Visibility Wind Dir Wind Speed Gust Speed Precip Events Conditions
12:52 AM 55.9 °F - 28.0 °F 34% 30.07 in 10.0 mi NE 6.9 mph - N/A   Clear
1:52 AM 53.1 °F - 30.9 °F 43% 30.09 in 10.0 mi NE 5.8 mph - N/A   Clear
2:52 AM 51.1 °F - 34.0 °F 52% 30.09 in 10.0 mi ENE 5.8 mph - N/A   Clear
3:52 AM 50.0 °F - 34.0 °F 54% 30.09 in 10.0 mi NE 4.6 mph - N/A   Clear
4:52 AM 48.0 °F - 34.0 °F 58% 30.09 in 10.0 mi NE 5.8 mph - N/A   Clear
5:52 AM 46.9 °F - 34.0 °F 61% 30.11 in 10.0 mi NNE 4.6 mph - N/A   Clear
6:52 AM 46.9 °F - 35.1 °F 63% 30.13 in 10.0 mi NE 8.1 mph - N/A   Clear
7:52 AM 46.9 °F - 37.0 °F 68% 30.14 in 10.0 mi NE 8.1 mph - N/A   Partly Cloudy
8:52 AM 46.9 °F - 36.0 °F 66% 30.14 in 10.0 mi ENE 8.1 mph - N/A   Mostly Cloudy
9:52 AM 46.9 °F - 36.0 °F 66% 30.16 in 10.0 mi East 11.5 mph - N/A   Scattered Clouds
10:52 AM 46.0 °F 41.0 °F 37.9 °F 73% 30.18 in 10.0 mi East 10.4 mph - N/A   Mostly Cloudy
11:52 AM 46.0 °F 42.5 °F 36.0 °F 68% 30.19 in 10.0 mi East 6.9 mph - N/A   Overcast
12:52 PM 46.0 °F 42.5 °F 35.1 °F 66% 30.17 in 10.0 mi East 6.9 mph - N/A   Overcast
1:52 PM 46.9 °F - 34.0 °F 61% 30.14 in 10.0 mi East 6.9 mph - N/A   Mostly Cloudy
2:52 PM 46.9 °F - 28.0 °F 48% 30.12 in 10.0 mi ESE 5.8 mph - N/A   Scattered Clouds
3:52 PM 46.9 °F - 32.0 °F 56% 30.12 in 10.0 mi SE 6.9 mph - N/A   Clear
4:52 PM 45.0 °F 43.5 °F 33.1 °F 63% 30.12 in 10.0 mi East 3.5 mph - N/A   Overcast
6:52 PM 44.1 °F 42.5 °F 33.1 °F 65% 30.11 in 10.0 mi ESE 3.5 mph - N/A   Mostly Cloudy
7:52 PM 44.1 °F 41.5 °F 33.1 °F 65% 30.10 in 10.0 mi ESE 4.6 mph - N/A   Overcast
8:52 PM 44.1 °F 42.5 °F 34.0 °F 68% 30.10 in 10.0 mi SSE 3.5 mph - N/A   Mostly Cloudy
9:52 PM 44.1 °F 40.8 °F 34.0 °F 68% 30.09 in 10.0 mi SSE 5.8 mph - N/A   Overcast
10:52 PM 44.1 °F 41.5 °F 34.0 °F 68% 30.09 in 10.0 mi SSE 4.6 mph - N/A   Overcast
11:52 PM 44.1 °F 41.5 °F 35.1 °F 71% 30.09 in 10.0 mi SSE 4.6 mph - N/A   Overcast